SR1NRS Weather Reports


time (UTC)temp
F
wind
direction
speed
knots
gust
knots
rain 1hr
in
rain 24hr
in
rain mn
in
humidity
%
barometer
mb
20260507220623 44 270 0.9 1.7 0.00 0.00 0.00 75 1017.6
20260507220123 44 220 0.0 0.0 0.00 0.00 0.00 75 1017.6
20260507215623 44 353 0.9 1.7 0.00 0.00 0.00 74 1017.6
20260507215123 44 274 0.0 0.9 0.00 0.00 0.00 74 1017.3
20260507214623 44 240 0.9 1.7 0.00 0.00 0.00 74 1017.6
20260507214123 45 3 1.7 1.7 0.00 0.00 0.00 74 1017.3
20260507213623 45 236 0.9 0.9 0.00 0.00 0.00 73 1017.3
20260507213124 45 223 0.0 0.0 0.00 0.00 0.00 73 1017.3
20260507212623 45 328 1.7 1.7 0.00 0.00 0.00 73 1017.3
20260507212125 45 266 2.6 2.6 0.00 0.00 0.00 73 1017.3
20260507211624 45 287 0.9 1.7 0.00 0.00 0.00 72 1017.6
20260507211123 45 19 2.6 2.6 0.00 0.00 0.00 72 1017.3
20260507210623 45 238 0.9 0.9 0.00 0.00 0.00 72 1017.3
20260507210124 45 254 0.0 0.9 0.00 0.00 0.00 72 1017.3
20260507205623 46 280 0.9 0.9 0.00 0.00 0.00 72 1017.3
20260507205123 46 213 0.9 0.9 0.00 0.00 0.00 72 1017.3
20260507204623 46 251 0.9 0.9 0.00 0.00 0.00 72 1017.3
20260507204124 46 325 2.6 2.6 0.00 0.00 0.00 72 1017.3
20260507203623 46 203 0.0 0.9 0.00 0.00 0.00 72 1016.9
20260507203124 46 212 0.0 0.0 0.00 0.00 0.00 72 1017.3
20260507202623 46 345 2.6 2.6 0.00 0.00 0.00 71 1017.3
20260507202123 46 239 0.0 0.9 0.00 0.00 0.00 71 1017.3
20260507201624 46 285 2.6 2.6 0.00 0.00 0.00 71 1016.9
20260507201124 46 338 1.7 1.7 0.00 0.00 0.00 70 1016.9
20260507200623 47 79 1.7 1.7 0.00 0.00 0.00 70 1016.9
20260507200123 47 301 0.9 1.7 0.00 0.00 0.00 70 1016.6
20260507195624 47 218 0.0 0.0 0.00 0.00 0.00 70 1016.6
20260507195123 47 337 3.5 5.2 0.00 0.00 0.00 69 1016.6
20260507194624 47 311 2.6 4.3 0.00 0.00 0.00 69 1016.6
20260507194123 47 5 2.6 2.6 0.00 0.00 0.00 69 1016.6
20260507193624 47 233 0.9 0.9 0.00 0.00 0.00 69 1016.3
20260507193123 47 230 0.0 0.0 0.00 0.00 0.00 69 1016.3
20260507192623 47 205 0.9 0.9 0.00 0.00 0.00 69 1016.3
20260507192123 48 204 0.0 0.0 0.00 0.00 0.00 69 1016.3
20260507191623 48 267 0.0 0.9 0.00 0.00 0.00 68 1016.3
20260507191124 48 251 0.9 0.9 0.00 0.00 0.00 68 1016.3
20260507190623 48 268 1.7 1.7 0.00 0.00 0.00 67 1015.9
20260507190124 48 236 0.9 1.7 0.00 0.00 0.00 67 1016.3
20260507185623 48 237 0.0 0.0 0.00 0.00 0.00 67 1015.9
20260507185123 49 14 1.7 1.7 0.00 0.00 0.00 66 1015.9
20260507184623 49 220 0.9 1.7 0.00 0.00 0.00 66 1015.9
20260507184123 49 11 2.6 2.6 0.00 0.00 0.00 66 1015.9
20260507183623 49 103 1.7 1.7 0.00 0.00 0.00 66 1015.9
20260507183124 49 341 2.6 4.3 0.00 0.00 0.00 65 1015.9
20260507182624 49 290 0.9 0.9 0.00 0.00 0.00 65 1015.9
20260507182124 49 291 0.9 0.9 0.00 0.00 0.00 65 1015.9
20260507181623 50 224 0.0 0.0 0.00 0.00 0.00 65 1015.6
20260507181123 50 224 0.0 0.9 0.00 0.00 0.00 65 1015.6
20260507180624 50 6 3.5 5.2 0.00 0.00 0.00 65 1015.6
20260507180124 50 316 2.6 2.6 0.00 0.00 0.00 65 1015.6
20260507175623 50 352 3.5 5.2 0.00 0.00 0.00 65 1015.6
20260507175125 50 280 3.5 5.2 0.00 0.00 0.00 65 1015.2
20260507174626 50 328 2.6 4.3 0.00 0.00 0.00 65 1015.6
20260507174123 50 234 0.0 0.0 0.00 0.00 0.00 65 1015.6
20260507173627 50 325 1.7 2.6 0.00 0.00 0.00 65 1015.2
20260507173124 50 6 1.7 2.6 0.00 0.00 0.00 65 1015.2
20260507172623 50 4 2.6 4.3 0.00 0.00 0.00 65 1015.2
20260507172124 50 289 0.9 0.9 0.00 0.00 0.00 65 1014.9
20260507171623 50 227 0.9 0.9 0.00 0.00 0.00 65 1015.2
20260507171123 51 19 2.6 4.3 0.00 0.00 0.00 65 1015.2
20260507170625 51 348 4.3 7.8 0.00 0.00 0.00 64 1015.2
20260507165645 51 7 3.5 5.2 0.00 0.00 0.00 64 1015.2
20260507165124 51 97 0.9 1.7 0.00 0.00 0.00 64 1014.9
20260507164623 51 326 1.7 2.6 0.00 0.00 0.00 64 1014.9
20260507164123 51 219 0.9 0.9 0.00 0.00 0.00 63 1014.9
20260507163623 51 276 1.7 1.7 0.00 0.00 0.00 63 1015.2
20260507163123 51 70 2.6 4.3 0.00 0.00 0.00 62 1015.2
20260507162623 52 359 3.5 6.1 0.00 0.00 0.00 62 1015.2
20260507162123 52 224 0.9 0.9 0.00 0.00 0.00 62 1014.9
20260507161623 52 34 3.5 5.2 0.00 0.00 0.00 62 1014.9
20260507161124 52 218 2.6 2.6 0.00 0.00 0.00 62 1014.9
20260507160624 52 295 3.5 4.3 0.00 0.00 0.00 62 1014.9
20260507160124 53 176 0.9 1.7 0.00 0.00 0.00 62 1014.9
20260507155623 53 140 1.7 1.7 0.00 0.00 0.00 62 1014.9
20260507155123 52 231 0.9 0.9 0.00 0.00 0.00 63 1014.9
20260507154624 52 65 0.9 1.7 0.00 0.00 0.00 64 1014.9
20260507154124 52 49 0.9 0.9 0.00 0.00 0.00 64 1014.9
20260507153625 52 288 1.7 1.7 0.00 0.00 0.00 64 1014.9
20260507153126 52 216 0.9 1.7 0.00 0.00 0.00 63 1014.6
20260507152623 52 351 5.2 6.1 0.00 0.00 0.00 63 1014.9
20260507152124 52 82 3.5 5.2 0.00 0.00 0.00 63 1014.6
20260507151624 52 213 0.9 0.9 0.00 0.00 0.00 63 1014.6
20260507151123 52 332 0.9 4.3 0.00 0.00 0.00 63 1014.6
20260507150623 52 354 4.3 7.0 0.00 0.00 0.00 63 1014.6
20260507150124 52 306 1.7 1.7 0.00 0.00 0.00 62 1014.2
20260507145625 53 246 1.7 1.7 0.00 0.00 0.00 63 1014.6
20260507145123 53 303 1.7 1.7 0.00 0.00 0.00 62 1014.6
20260507144624 53 76 3.5 5.2 0.00 0.00 0.00 61 1014.2
20260507144124 53 11 3.5 4.3 0.00 0.00 0.00 60 1014.2
20260507143624 54 26 1.7 2.6 0.00 0.00 0.00 59 1014.6
20260507143124 54 26 1.7 1.7 0.00 0.00 0.00 59 1014.2
20260507142624 54 265 0.9 1.7 0.00 0.00 0.00 58 1014.2
20260507142124 54 214 0.9 0.9 0.00 0.00 0.00 59 1014.6
20260507141625 54 145 0.9 1.7 0.00 0.00 0.00 58 1014.2
20260507141124 54 212 0.0 0.9 0.00 0.00 0.00 59 1014.2
20260507140624 54 85 1.7 2.6 0.00 0.00 0.00 59 1014.2
20260507140123 54 217 0.9 1.7 0.00 0.00 0.00 59 1014.2
20260507135623 53 202 0.0 0.9 0.00 0.00 0.00 59 1014.2
20260507135123 54 220 0.0 0.9 0.00 0.00 0.00 59 1014.2
20260507134625 54 201 2.6 4.3 0.00 0.00 0.00 58 1014.2
20260507134123 54 36 1.7 1.7 0.00 0.00 0.00 59 1014.2
20260507133624 54 337 1.7 2.6 0.00 0.00 0.00 59 1014.2
20260507133124 54 219 0.9 0.9 0.00 0.00 0.00 58 1014.2
20260507132624 53 159 2.6 2.6 0.00 0.00 0.00 60 1014.2
20260507132125 53 16 2.6 2.6 0.00 0.00 0.00 60 1014.2
20260507131623 53 11 2.6 4.3 0.00 0.00 0.00 60 1014.2
20260507131124 53 67 0.9 1.7 0.00 0.00 0.00 60 1014.2
20260507130625 53 73 1.7 2.6 0.00 0.00 0.00 61 1014.2
20260507130123 53 96 1.7 1.7 0.00 0.00 0.00 61 1014.2
20260507125624 53 193 0.9 1.7 0.00 0.00 0.00 62 1014.2
20260507125124 53 75 2.6 4.3 0.00 0.00 0.00 61 1013.9
20260507124624 52 117 1.7 2.6 0.00 0.00 0.00 62 1014.2
20260507124124 52 94 2.6 4.3 0.00 0.00 0.00 62 1014.2
20260507123624 52 68 5.2 5.2 0.00 0.00 0.00 62 1013.9
20260507123123 53 149 1.7 2.6 0.00 0.00 0.00 62 1013.9
20260507122623 52 44 2.6 4.3 0.00 0.00 0.00 62 1013.6
20260507122127 52 49 4.3 6.1 0.00 0.00 0.00 62 1014.2
20260507121623 52 224 0.9 0.9 0.00 0.00 0.00 62 1013.9
20260507121124 52 273 1.7 1.7 0.00 0.00 0.00 63 1013.9
20260507120623 52 95 1.7 2.6 0.00 0.00 0.00 62 1013.9
20260507120123 53 94 1.7 1.7 0.00 0.00 0.00 61 1013.9
20260507115623 53 224 2.6 4.3 0.00 0.00 0.00 61 1013.9
20260507115125 53 355 4.3 5.2 0.00 0.00 0.00 60 1013.9
20260507114623 53 8 3.5 5.2 0.00 0.00 0.00 60 1013.9
20260507114125 52 22 4.3 6.1 0.00 0.00 0.00 61 1013.9
20260507113623 52 206 2.6 4.3 0.00 0.00 0.00 62 1013.9
20260507113124 52 67 3.5 5.2 0.00 0.00 0.00 62 1013.6
20260507112623 52 199 0.0 0.9 0.00 0.00 0.00 62 1013.6
20260507112123 52 63 1.7 2.6 0.00 0.00 0.00 61 1013.9
20260507111624 52 357 0.9 1.7 0.00 0.00 0.00 63 1013.6
20260507111124 52 186 2.6 4.3 0.00 0.00 0.00 61 1013.6
20260507110624 52 85 4.3 7.8 0.00 0.00 0.00 62 1013.6
20260507110123 52 254 1.7 2.6 0.00 0.00 0.00 62 1013.6
20260507105623 51 24 3.5 4.3 0.00 0.00 0.00 63 1013.6
20260507105123 51 169 2.6 5.2 0.00 0.00 0.00 63 1013.6
20260507104623 51 283 1.7 1.7 0.00 0.00 0.00 63 1013.6
20260507104123 51 127 2.6 6.1 0.00 0.00 0.00 63 1013.6
20260507103623 51 111 3.5 5.2 0.00 0.00 0.00 63 1013.6
20260507103123 51 269 1.7 1.7 0.00 0.00 0.00 64 1013.6
20260507102623 50 40 4.3 6.1 0.00 0.00 0.00 64 1013.6
20260507102123 51 329 2.6 4.3 0.00 0.00 0.00 64 1013.6
20260507101623 51 177 1.7 2.6 0.00 0.00 0.00 64 1013.6
20260507101123 51 70 1.7 2.6 0.00 0.00 0.00 63 1013.6
20260507100624 51 49 6.1 7.0 0.00 0.00 0.00 63 1013.2
20260507100126 51 28 5.2 6.1 0.00 0.00 0.00 64 1013.2
20260507095624 50 0 3.5 4.3 0.00 0.00 0.00 65 1013.2
20260507095123 50 41 3.5 5.2 0.00 0.00 0.00 65 1012.9
20260507094623 50 87 0.9 1.7 0.00 0.00 0.00 66 1013.2
20260507094124 50 19 2.6 4.3 0.00 0.00 0.00 65 1013.2
20260507093623 50 1 3.5 5.2 0.00 0.00 0.00 65 1012.9
20260507093124 50 23 4.3 6.1 0.00 0.00 0.00 65 1013.2
20260507092623 50 232 3.5 7.0 0.00 0.00 0.00 66 1012.9
20260507092123 50 0 5.2 6.1 0.00 0.00 0.00 67 1012.9
20260507091624 49 146 4.3 7.0 0.00 0.00 0.00 67 1012.9
20260507091123 49 162 3.5 5.2 0.00 0.00 0.00 67 1012.9
20260507090623 50 83 4.3 5.2 0.00 0.00 0.00 67 1012.9
20260507090125 50 221 0.9 1.7 0.00 0.00 0.00 66 1012.9
20260507085624 49 141 6.1 7.8 0.00 0.00 0.00 67 1012.9
20260507085124 49 318 1.7 5.2 0.00 0.00 0.00 69 1012.9
20260507084624 49 37 5.2 7.0 0.00 0.00 0.00 69 1012.9
20260507084124 48 318 2.6 5.2 0.00 0.00 0.00 69 1012.5
20260507083624 48 27 5.2 8.7 0.00 0.00 0.00 69 1012.5
20260507083123 48 70 3.5 4.3 0.00 0.00 0.00 70 1012.5
20260507082624 47 54 3.5 5.2 0.00 0.00 0.00 71 1012.5
20260507082134 47 99 3.5 5.2 0.00 0.00 0.00 72 1012.5
20260507081623 47 81 4.3 5.2 0.00 0.00 0.00 73 1012.5
20260507081123 46 350 5.2 8.7 0.00 0.00 0.00 73 1012.5
20260507080623 46 321 5.2 7.0 0.00 0.00 0.00 73 1012.2
20260507080123 46 28 7.8 8.7 0.00 0.00 0.00 73 1012.5
20260507075623 46 19 5.2 7.0 0.00 0.00 0.00 73 1012.5
20260507075124 46 139 2.6 4.3 0.00 0.00 0.00 73 1012.2
20260507074623 46 15 2.6 4.3 0.00 0.00 0.00 74 1012.5
20260507074123 46 37 4.3 6.1 0.00 0.00 0.00 74 1012.2
20260507073623 46 15 5.2 7.0 0.00 0.00 0.00 74 1012.2
20260507073123 46 351 4.3 7.8 0.00 0.00 0.00 74 1012.2
20260507072623 46 14 7.8 13.0 0.00 0.00 0.00 74 1012.2
20260507072123 46 21 7.8 11.3 0.00 0.00 0.00 75 1012.2
20260507071626 46 43 1.7 2.6 0.00 0.00 0.00 75 1011.9
20260507071124 46 330 3.5 5.2 0.00 0.00 0.00 75 1011.9
20260507070623 46 345 4.3 6.1 0.00 0.00 0.00 75 1011.9
20260507070124 46 40 1.7 2.6 0.00 0.00 0.00 75 1011.9
20260507065623 46 31 7.0 7.8 0.00 0.00 0.00 74 1011.9
20260507065124 46 44 2.6 6.1 0.00 0.00 0.00 75 1011.9
20260507064623 45 154 0.9 1.7 0.00 0.00 0.00 75 1011.5
20260507064123 45 22 5.2 7.8 0.00 0.00 0.00 76 1011.5
20260507063624 45 5 6.1 8.7 0.00 0.00 0.00 76 1011.5
20260507063124 45 32 4.3 5.2 0.00 0.00 0.00 77 1011.5
20260507062624 45 12 4.3 5.2 0.00 0.00 0.00 76 1011.5
20260507062123 45 156 4.3 6.1 0.00 0.00 0.00 77 1011.5
20260507061623 45 282 2.6 4.3 0.00 0.00 0.00 77 1011.5
20260507061124 45 83 7.8 12.2 0.00 0.00 0.00 78 1011.5
20260507060623 45 82 4.3 6.1 0.00 0.00 0.00 78 1011.5
20260507060124 45 198 1.7 2.6 0.00 0.00 0.00 78 1011.5
20260507055624 45 38 6.1 8.7 0.00 0.00 0.00 78 1011.5
20260507055124 45 331 5.2 8.7 0.00 0.00 0.00 78 1011.2
20260507054623 45 36 4.3 6.1 0.00 0.00 0.00 79 1011.2
20260507054124 45 86 3.5 5.2 0.00 0.00 0.00 79 1011.2
20260507053623 45 240 0.9 1.7 0.00 0.00 0.00 80 1011.2
20260507053123 45 327 4.3 6.1 0.00 0.00 0.00 80 1011.2
20260507052623 45 186 2.6 4.3 0.00 0.00 0.00 80 1011.2
20260507052123 45 30 2.6 4.3 0.00 0.00 0.00 80 1011.2
20260507051624 45 13 5.2 7.0 0.00 0.00 0.00 79 1011.2
20260507051123 45 24 4.3 6.1 0.00 0.00 0.00 79 1011.5
20260507050623 45 51 5.2 6.1 0.00 0.00 0.00 79 1011.2
20260507050123 45 64 2.6 6.1 0.00 0.00 0.00 78 1011.2
20260507045623 45 26 6.1 7.8 0.00 0.00 0.00 78 1011.2
20260507045123 45 195 0.0 0.9 0.00 0.00 0.00 79 1011.2
20260507044624 45 48 6.1 8.7 0.00 0.00 0.00 79 1011.2
20260507044124 45 342 0.9 1.7 0.00 0.00 0.00 80 1010.8
20260507043624 45 35 0.9 1.7 0.00 0.00 0.00 80 1010.8
20260507043123 45 222 0.0 0.0 0.00 0.00 0.00 80 1010.5
20260507042624 45 220 0.9 0.9 0.00 0.00 0.00 80 1010.5
20260507042124 45 263 1.7 2.6 0.00 0.00 0.00 80 1010.2
20260507041623 45 68 2.6 4.3 0.00 0.00 0.00 80 1010.5
20260507041123 45 167 0.9 1.7 0.00 0.00 0.00 80 1010.5
20260507040626 45 175 0.9 0.9 0.00 0.00 0.00 80 1010.5
20260507040124 45 304 1.7 1.7 0.00 0.00 0.00 79 1010.2
20260507035624 45 115 1.7 4.3 0.00 0.00 0.00 79 1010.2
20260507035123 45 194 0.0 0.0 0.00 0.00 0.00 80 1010.2
20260507034623 45 48 5.2 6.1 0.00 0.00 0.00 80 1009.8
20260507034123 45 39 5.2 7.0 0.00 0.00 0.00 80 1010.2
20260507033623 45 321 1.7 1.7 0.00 0.00 0.00 81 1009.8
20260507033123 45 165 1.7 1.7 0.00 0.00 0.00 81 1009.8
20260507032634 45 9 1.7 4.3 0.00 0.00 0.00 81 1009.8
20260507032123 45 333 4.3 6.1 0.00 0.00 0.00 80 1009.8
20260507031623 45 230 0.9 0.9 0.00 0.00 0.00 80 1009.8
20260507031123 45 356 2.6 4.3 0.00 0.00 0.00 80 1009.8
20260507030625 45 331 1.7 1.7 0.00 0.00 0.00 80 1009.8
20260507030123 45 45 5.2 6.1 0.00 0.00 0.00 80 1009.8
20260507025623 45 53 1.7 4.3 0.00 0.00 0.00 80 1009.8
20260507025124 44 8 1.7 2.6 0.00 0.00 0.00 81 1009.8
20260507024626 44 10 3.5 5.2 0.00 0.00 0.00 81 1009.5
20260507024123 44 102 1.7 2.6 0.00 0.00 0.00 81 1009.8
20260507023626 44 182 0.9 0.9 0.00 0.00 0.00 81 1009.8
20260507023124 44 210 0.9 0.9 0.00 0.00 0.00 81 1009.8
20260507022623 44 223 0.0 0.9 0.00 0.00 0.00 81 1009.5
20260507021653 44 340 0.9 0.9 0.00 0.00 0.00 80 1009.5
20260507021123 44 193 0.9 1.7 0.00 0.00 0.00 81 1009.5
20260507020624 44 50 3.5 4.3 0.00 0.00 0.00 81 1009.5
20260507020123 44 107 4.3 5.2 0.00 0.00 0.00 81 1009.5
20260507015623 44 175 0.0 0.9 0.00 0.00 0.00 81 1009.1
20260507015125 44 185 2.6 5.2 0.00 0.00 0.00 81 1009.5
20260507014623 44 19 2.6 7.0 0.00 0.00 0.00 81 1009.1
20260507014123 44 52 2.6 5.2 0.00 0.00 0.00 81 1009.5
20260507013139 44 137 1.7 1.7 0.00 0.00 0.00 81 1009.1
20260507012624 44 86 3.5 5.2 0.00 0.00 0.00 81 1009.1
20260507012123 44 40 4.3 5.2 0.00 0.00 0.00 81 1009.1
20260507011624 44 7 4.3 6.1 0.00 0.00 0.00 81 1009.1
20260507011123 44 61 5.2 7.8 0.00 0.00 0.00 81 1009.5
20260507010623 44 50 4.3 6.1 0.00 0.00 0.00 82 1009.1
20260507010123 44 309 0.9 1.7 0.00 0.00 0.00 82 1009.1
20260507005623 44 69 4.3 5.2 0.00 0.00 0.00 82 1009.1
20260507005124 44 192 0.0 0.9 0.00 0.00 0.00 82 1008.8
20260507004624 44 159 1.7 2.6 0.00 0.00 0.00 82 1009.1
20260507004123 44 8 2.6 2.6 0.00 0.00 0.00 81 1008.8
20260507003625 44 9 1.7 2.6 0.00 0.00 0.00 81 1008.8
20260507003123 44 27 4.3 5.2 0.00 0.00 0.00 81 1008.8
20260507002624 45 134 1.7 2.6 0.00 0.00 0.00 81 1008.8
20260507002126 45 68 5.2 7.0 0.00 0.00 0.00 81 1009.1
20260507001623 45 346 2.6 2.6 0.00 0.00 0.00 81 1009.1
20260507001123 45 168 1.7 2.6 0.00 0.00 0.00 81 1009.1
20260507000623 45 53 3.5 5.2 0.00 0.00 0.00 81 1009.1
20260507000124 45 32 2.6 4.3 0.00 0.00 0.00 81 1009.1
20260506235624 45 37 2.6 4.3 0.00 0.00 0.00 81 1009.1
20260506235124 45 328 1.7 2.6 0.00 0.00 0.00 81 1008.8
20260506234625 45 36 3.5 4.3 0.00 0.00 0.00 81 1009.1
20260506234123 45 89 2.6 4.3 0.00 0.00 0.00 81 1008.8
20260506233623 45 349 2.6 2.6 0.00 0.00 0.00 81 1008.8
20260506233124 45 25 2.6 5.2 0.00 0.00 0.00 81 1008.8
20260506232624 45 30 3.5 5.2 0.00 0.00 0.00 81 1008.8
20260506232124 45 40 3.5 6.1 0.00 0.00 0.00 81 1008.8
20260506231624 44 54 4.3 6.1 0.00 0.00 0.00 81 1008.8
20260506231123 45 44 2.6 4.3 0.00 0.00 0.00 82 1008.8
20260506230623 44 34 1.7 1.7 0.00 0.00 0.00 81 1008.5
20260506230123 45 214 1.7 2.6 0.00 0.00 0.00 81 1008.8
20260506225623 45 84 3.5 6.1 0.00 0.00 0.00 81 1008.8
20260506225123 45 4 2.6 4.3 0.00 0.00 0.00 81 1008.5
20260506224623 45 217 4.3 7.0 0.00 0.00 0.00 81 1008.8
20260506224123 45 128 3.5 5.2 0.00 0.00 0.00 81 1008.5
20260506223623 44 116 2.6 4.3 0.00 0.00 0.00 81 1008.5
20260506223123 45 206 1.7 1.7 0.00 0.00 0.00 81 1008.5
20260506222623 45 22 3.5 5.2 0.00 0.00 0.00 81 1008.5
20260506222124 45 90 5.2 6.1 0.00 0.00 0.00 81 1008.5
20260506221623 45 71 2.6 2.6 0.00 0.00 0.00 82 1008.5
20260506221123 45 82 2.6 4.3 0.00 0.00 0.00 82 1008.5